Regional Weather Roundup
Issued by NWS

Home | Current Version | Previous Version | Graphics & Text | Print | Product List | Glossary On
Versions: 1 2 3 4 5 6 7 8 9 10 11 12 13 14 15 16 17 18 19 20 21 22 23 24 25 26 27 28 29 30 31 32 33 34 35 36 37 38 39 40 41 42 43 44 45 46 47 48 49 50
000
ASUS43 KLOT 310612
RWRIL

ILLINOIS REGIONAL WEATHER ROUNDUP
NATIONAL WEATHER SERVICE CHICAGO/ROMEOVILLE IL
100 AM CDT MON AUG 31 2015

NOTE: "FAIR" INDICATES FEW OR NO CLOUDS BELOW 12,000 FEET WITH NO
SIGNIFICANT WEATHER AND/OR OBSTRUCTIONS TO VISIBILITY.

* THESE STATIONS ARE NOT UNDER NWS QUALITY CONTROL. THEY ALSO MAY NOT
  REPORT WEATHER SUCH AS PRECIPITATION OR FOG.

ILZ001-002-007-009-015-016-024-310700-
NORTHWEST ILLINOIS

CITY           SKY/WX    TMP DP  RH WIND       PRES   REMARKS
MOLINE         FAIR      63  60  90 E3        30.02S FOG
6HR MIN TEMP:  62; 6HR MAX TEMP:  76;

STERLING*        N/A    N/A N/A N/A MISG        N/A
SAVANNA*       FAIR      63  61  94 CALM      30.03R FOG
$$

ILZ003-004-008-010-011-017-018-310700-
NORTH CENTRAL ILLINOIS

CITY           SKY/WX    TMP DP  RH WIND       PRES   REMARKS
ROCKFORD       FAIR      62  59  90 CALM      30.05S
6HR MIN TEMP:  62; 6HR MAX TEMP:  72;

FREEPORT*      FOG       59  59  98 CALM      30.05S VSB 1/2
ROCHELLE*      FAIR      58  58  99 CALM      30.04F FOG
DE KALB*       FOG       62  61  98 CALM      30.05S VSB 1
PERU*          FAIR      63  61  93 CALM      30.04S FOG
$$

ILZ005-006-012>014-019>023-310700-
NORTHEAST ILLINOIS

CITY           SKY/WX    TMP DP  RH WIND       PRES   REMARKS
CHICAGO-OHARE  FAIR      63  62  97 SE3       30.04S FOG
6HR MIN TEMP:  62; 6HR MAX TEMP:  72;

CHICAGO-MIDWAY FAIR      68  64  87 CALM      30.04S
6HR MIN TEMP:  68; 6HR MAX TEMP:  73;

AURORA         FOG       58  57  97 CALM      30.04F VSB 1/2
6HR MIN TEMP:  58; 6HR MAX TEMP:  74;

LANSING*       FOG       61  61 100 CALM      30.04F VSB 1/4
JOLIET*        FOG       62  62  99 CALM      30.04S VSB 1/4
WAUKEGAN       FOG       61  61 100 SW3       30.03S VSB 1/2
6HR MIN TEMP:  59; 6HR MAX TEMP:  66;

DUPAGE AIRPORT MOCLDY    60  58  92 CALM      30.04S FOG
6HR MIN TEMP:  60; 6HR MAX TEMP:  73;

KANKAKEE*      FAIR      65  64  99 CALM      30.05S FOG
WHEELING       FAIR      61  58  90 CALM      30.05S FOG
6HR MIN TEMP:  59; 6HR MAX TEMP:  69;

MORRIS*        FAIR      63  62  97 CALM      30.03S FOG
ROMEOVILLE*    FOG       63  63  99 SE3       30.04S VSB 1/2
NORTHERLY ISL    N/A     67  65  93 CALM        N/A
$$

LMZ740>746-310700-
SOUTHERN LAKE MICHIGAN

STATION/POSITION SKY/WX   TEMP    WIND        PRES    VSBY  WAVE
                          AIR SEA DIR/SP/G                  HT/PER
                          (F)     (DEG/KT/KT) (MB)    (MI)  (FT/S)
SOUTHERN BUOY              68 68  180/  8/ 10 1016.6F         0
WILMETTE HARBOR            60 60  360/  2/  2   N/A           1
HARRISON CRIB              68     120/  6/  6   N/A
BURNHAM HARBOR             66      CALM  /  3   N/A
BURNS HARBOR               67      70/  5/  7 1017.6S
MICHIGAN CITY              67      70/  6/  7   N/A
MICHIGAN CITY 6N           68 71  110/  6/  6   N/A           1
ST. JOSEPH                 69 71  160/  4/  4   N/A           0
$$

ILZ025>027-034>036-040-047-049-050-058-095>099-310700-
WEST-CENTRAL ILLINOIS

CITY           SKY/WX    TMP DP  RH WIND       PRES   REMARKS
QUINCY         FAIR      72  69  90 E7        30.00F
GALESBURG*     FAIR      67  65  94 E3        30.03S
MACOMB*        FAIR      64  63  97 E3        30.04S FOG
JACKSONVILLE*  FAIR      69  67  93 E3        30.01S
PITTSFIELD*    FAIR      70  68  94 CALM      30.02S FOG
$$

ILZ028>032-037-038-041>044-048-051>054-059>061-310700-
CENTRAL ILLINOIS

CITY           SKY/WX    TMP DP  RH WIND       PRES   REMARKS
PONTIAC        FAIR      64  64 100 CALM      30.05R FOG
BLOOMINGTON    FAIR      66  66 100 SE5       30.05S FOG
DECATUR        FAIR      73  67  81 S6        30.03F
PEORIA         FAIR      70  66  87 CALM      30.03S
6HR MIN TEMP:  70; 6HR MAX TEMP:  80;

LACON*         FAIR      63  61  95 CALM      30.02S FOG
LINCOLN*       FAIR      68  66  92 CALM      30.02S FOG
SPRINGFIELD    FAIR      70  67  90 CALM      30.02S
6HR MIN TEMP:  69; 6HR MAX TEMP:  82;

TAYLORVILLE    FAIR      68  68 100 SE5       30.03S
$$

ILZ033-039-045-046-055>057-062-063-310700-
EAST-CENTRAL ILLINOIS

CITY           SKY/WX    TMP DP  RH WIND       PRES   REMARKS
CHAMPAIGN      MOCLDY    70  67  90 SE3       30.05S
RANTOUL*       FAIR      71  70  96 CALM      30.04S FOG
MATTOON        FAIR      72  67  84 S5        30.04S HAZE
PARIS*         CLOUDY    70  68  95 CALM      30.06S
$$

ILZ079-100>102-310700-
SOUTHWEST ILLINOIS

CITY           SKY/WX    TMP DP  RH WIND       PRES   REMARKS
ALTON          FAIR      73  70  91 SE6       30.02S
BELLEVILLE     FAIR      74  74  99 VRB1      30.01S
CAHOKIA*       CLOUDY    76  71  85 SE3       30.01S
SPARTA*        FAIR      73  70  89 S7        30.04S
$$

ILZ064>066-069>071-074>076-080>082-084>086-088>090-092>094-310700-
SOUTH-CENTRAL ILLINOIS

CITY           SKY/WX    TMP DP  RH WIND       PRES   REMARKS
CARBONDALE     FAIR      71  67  87 S5        30.04S
6HR MIN TEMP:  70; 6HR MAX TEMP:  80;

CAIRO*         FAIR      68  68 100 E3        30.04F
EFFINGHAM*     FAIR      69  65  89 CALM      30.05F
MARION         FAIR      70  68  94 S3        30.05S
MT. VERNON     FAIR      72  64  78 CALM      30.05S
SALEM*         MOCLDY    75  69  81 S5        30.03S
METROPOLIS*    FAIR      68  68 100 CALM      30.06S
$$

ILZ067-068-072-073-078-083-087-091-310700-
SOUTHEAST ILLINOIS

CITY           SKY/WX    TMP DP  RH WIND       PRES   REMARKS
LAWRENCEVILLE  FAIR      69  67  93 S5        30.05S
FLORA*         FAIR      68  67  95 S3        30.05S
FAIRFIELD*     FAIR      70  68  94 CALM      30.04S
HARRISBURG*    FAIR      67  66  97 CALM      30.05S
ROBINSON*      FAIR      67  66  95 CALM      30.06S
CARMI*         FAIR      67  67  98 SE3       30.05S
$$

ABBREVIATIONS USED IN REMARKS
   TC - TEMPERATURE IN CELSIUS
  WCI - WIND CHILL INDEX
   HX - HEAT INDEX
  VSB - VISIBILITY
$$




USA.gov is the U.S. government's official web portal to all federal, state and local government web resources and services.